OBJECT BQ, 64590

Orbit data source: Space-Track

You're viewing an Uncataloged Satellite

Recently launched and/or uncataloged satellites may have evolving metadata. Metadata may include but not limited to: Owner, Maufacturer, Bus, Motor, and Mission.

OBJECT BQ, 64590 is a satellite in SSO that was launched on Mon, 23 Jun 2025 UTC via an FALCON 9 launch vehicle from the Air Force Western Test Range (AFWTR). Unknown objects in Earth's orbit typically refer to objects detected orbiting the Earth but have not yet been identified or cataloged. These objects could be anything from previously untracked satellites, spent rocket stages, debris from satellite collisions, or even natural meteoroids temporarily captured by Earth's gravity.

Loading next visibility...
Identifier
64590, 2025-135BQ
Orbit
SSO
Country
Flag of TBDTBD
Related business
None
Manufacturer
Unknown
Mission
Operational Civil Technology
Bus & Motor
Unknown
Mass
Unknown
Launch date (UTC)
2025-06-23 (11 months ago)
Launch vehicle
FALCON 9
Launch site
Air Force Western Test Range (AFWTR)
Object type
Unknown
Shape & HBR
Box, 0.1 m
Radar Cross Section
0.035 m², Small (<0.1 m²)

Expand to show TLE details & history
Last TLE update: 9 hours ago

TLE from 9 hours ago
0 OBJECT BQ
1 64590U 25135BQ  26133.29716389  .00000689  00000-0  70015-4 0  9990
2 64590  97.7678 248.1275 0006842  89.9877 270.2127 14.93947245 48693
Epoch: 2026-05-13T07:07Z
TLE epoch observation values (Epoch: 2026-05-13T07:07:54.960Z)
Latitude
Longitude
-89.91071°
Altitude
588.672 km
Speed
7.566 km/s
True Right ascension
16h 32m 30s
True Declination
0° 00' 00"
Sunlit
Object was in full shadow at epoch
Visualization orbit readout
Latitude
Unknown
Longitude
Unknown
Altitude
Unknown
Speed
Unknown
Apparent Right ascension
Unknown
Apparent Declination
Unknown
Sunlit
N/A
Visualization observer readout
Local Sidereal Time
00:50:37
Azimuth
Unknown
Elevation
Unknown
Doppler factor
Unknown
Orbital elements
Apogee altitude
587.421 km
Perigee altitude
577.896 km
Semi-major axis
6,960.796 km
Eccentricity
0.00068
Inclination
97.7678°
RAAN
248.1275°
Arg. of periapsis
89.9877°
True anomaly
270.1343°
Mean anomaly
270.2127°
Eccentric anomaly
270.1735°
Mean motion
3.73727 °/min
Orbital period
96.33 mins
BSTAR
0.000070015
Loading maneuver chart data...
Computing Atmospheric mass density...
Loading historical data...
Loading historical data...
Loading historical data...
Loading historical data...
Loading historical data...
Loading historical data...
Loading historical data...

Documentation

Showing up to 5 results
|